Home > Weather > Red Deer > Past weeks

Flag for Canada Past Weather in Red Deer, Alberta, Canada — Yesterday and Last 2 Weeks

Now
45 °F

Drizzle. Overcast.


Feels Like: 45 °F
Forecast: 39 / 63 °F
Wind: 2 mph from Northeast

Location: Red Deer

Current Time: May 24, 2016 at 4:01:52 AM

Latest Report: May 24, 2016 at 3:00 AM


Visibility: 8 mi

Pressure: 29.92 "Hg (26.95 "Hg at 857m altitude)

Humidity: 93%

Dew Point: 43 °F

Location of Red DeerLocation

Past Weather in Red Deer — Graph

°F

Red Deer Temperature Yesterday

Maximum temperature yesterday: 48 °F (at 8:00 PM)
Minimum temperature yesterday: 37 °F (at 2:00 AM)
Average temperature yesterday: 42 °F

High & Low Weather Summary for the Past Weeks

 TemperatureHumidityPressure
High75 °F (May 18, 2:00 PM)100% (May 22, 4:00 AM)30.54 "Hg (May 22, 4:00 AM)
Low27 °F (May 11, 4:00 AM)16% (May 16, 4:00 PM)29.52 "Hg (May 22, 11:00 AM)
Average47 °F59%30.05 "Hg
* Reported May 9 2:00 AM — May 24 2:00 AM, Red Deer, Weather by CustomWeather, © 2016

Note: Actual official high and low records may vary slightly from our data, if they occured in-between our weather recording intervals... More about our weather records

Advertising

Red Deer Weather History for the Previous 24 Hours

Scroll right to see more
 ConditionsComfort  
Time TempWeatherWind HumidityBarometerVisibility
2:00 AM
Tue, May 24
45 °FOvercast.2 mph93%29.92 "Hg10 mi
1:00 AM45 °FOvercast.7 mph93%29.92 "Hg15 mi
12:00 AM45 °FOvercast.6 mph93%29.91 "Hg15 mi
11:00 PM
Mon, May 23
46 °FOvercast.2 mph87%29.91 "Hg15 mi
10:00 PM46 °FOvercast.2 mph87%29.90 "Hg15 mi
9:00 PM46 °FOvercast.6 mph87%29.89 "Hg15 mi
8:00 PM48 °FMostly cloudy.6 mph82%29.88 "Hg15 mi
7:00 PM46 °FOvercast.9 mph87%29.88 "Hg15 mi
6:00 PM46 °FOvercast.12 mph82%29.86 "Hg15 mi
5:00 PM46 °FOvercast.16 mph82%29.86 "Hg15 mi
4:00 PM46 °FOvercast.15 mph82%29.84 "Hg15 mi
3:00 PM45 °FOvercast.15 mph81%29.82 "Hg15 mi
2:00 PM45 °FMostly cloudy.15 mph81%29.80 "Hg15 mi
1:00 PM43 °FMostly cloudy.17 mph81%29.79 "Hg15 mi
12:00 PM45 °FLight rain. Mostly cloudy.14 mph81%29.78 "Hg15 mi
11:00 AM43 °FMostly cloudy.17 mph87%29.76 "Hg8 mi
10:00 AM43 °FLight rain. Mostly cloudy.15 mph87%29.75 "Hg8 mi
9:00 AM41 °FLight rain. Fog.15 mph93%29.75 "Hg3 mi
8:00 AM39 °FLight rain. More clouds than sun.14 mph93%29.73 "Hg10 mi
7:00 AM37 °FMostly cloudy.12 mph100%29.72 "Hg15 mi
6:00 AM37 °FMostly cloudy.16 mph93%29.70 "Hg15 mi
5:00 AM37 °FLight rain. Overcast.14 mph93%29.69 "Hg10 mi
4:00 AM37 °FLight rain. Overcast.16 mph87%29.68 "Hg10 mi
Weather by CustomWeather, © 2016

See weather overviewHow to use our weather pages